THOR ABLESTAR DEB, 409

Orbit data source: Space-Track

THOR ABLESTAR DEB, 409 is space debris in LEO originally from a launch on Thu, 29 Jun 1961 UTC launched from the Air Force Eastern Test Range (AFETR). Debris objects in space refer to the collection of defunct objects orbiting the Earth. Examples of debris include non-operational satellites, rocket bodies, and fragments generated from explosions, collisions, or faulty payload assembly.

Loading next visibility...
Identifier
409, 1961-015EJ
Orbit
LEO
Last TLE update
2 days ago
Origin
Manufacturer
Unknown
Mission
Spacecraft
Bus & Motor
Unknown
Mass
Unknown
Launch date (UTC)
1961-06-29 (64 years ago)
Launch vehicle
Unknown
Launch site
Air Force Eastern Test Range (AFETR)
Object type
Payload
Rocket body
Debris
Shape & HBR
Unknown
Radar Cross Section
Small (<0.1 m²)

Expand to show TLE details & history

TLE from 2 days ago
0 THOR ABLESTAR DEB
1 00409U 61015EJ  25107.89103298  .00002059  00000-0  85179-3 0  9990
2 00409  66.7166  18.5570 0057304 126.6524 233.9861 14.27762579280561
Epoch: 2025-04-17T21:23Z
Definitive object data (Epoch: 2025-04-17T21:23:05.249Z)
Latitude
-0.00001°
Longitude
-148.47131°
Altitude
825.665 km
Speed
7.428 km/s
True Right ascension
01h 14m 13s
True Declination
0° 00' 00"
Sunlit
Object was in daylight at TLE epoch
Visualization TLE readout
Latitude
-37.61458°
Longitude
45.20361°
Altitude
816.9 km
Speed
7.442 km/s
Apparent Right ascension
16h 40m 47s
Apparent Declination
-46° 50' 32"
Sunlit
Object is in full shadow
Visualization observer readout
Local Sidereal Time
07:43:53
Azimuth
117.334° SE
Elevation
-56.513°
Doppler factor
1
Orbital elements
Apogee altitude
838.714 km
Perigee altitude
756.474 km
Semi-major axis
7,175.731 km
Eccentricity
0.0057304
Inclination
66.7166°
RAAN
18.557°
Arg. of periapsis
126.6524°
True anomaly
233.45718°
Mean anomaly
233.9861°
Eccentric anomaly
233.72142°
Mean motion
3.57062 °/min
BSTAR
0.00085179
Orbital period
100.82 mins
Loading maneuver chart data...
Loading SW <> Apogee altitude chart data...

THOR ABLESTAR DEB Visibility forecast

Observer location: undefined°, undefined°

Span
Click to sort rows by Start time (UTC) header in descending order
Start Az.
Max El. time (UTC)
Max El. Az.
Max El.
End time (UTC)
End Az.
9 mins2025-04-20 03:42:52.994Z346.46° N2025-04-20 03:47:52.994Z65.129° ENE31.441°2025-04-20 03:51:52.994Z120.232° SE
7 mins2025-04-20 05:27:52.994Z297.493° NW2025-04-20 05:30:52.994Z251.289° W24.632°2025-04-20 05:34:52.994Z196.557° SSW
8 mins2025-04-20 18:26:52.994Z170.098° S2025-04-20 18:29:52.994Z121.741° SE32.164°2025-04-20 18:34:52.994Z45.58° ENE
7 mins2025-04-20 20:10:52.994Z260.602° W2025-04-20 20:13:52.994Z307.864° NW26.359°2025-04-20 20:17:52.994Z5.243° NNE
|